Home   Weather   Istres   Past weeks

Flag for France Past Weather in Istres, Provence-Alpes-Côte d'Azur, France — Yesterday and Last 2 Weeks

Now
64 °F

Passing clouds.


Feels Like: 64 °F
Forecast: 57 / 82 °F
Wind: 5 mph from Northeast

Location: Istres Airport

Current Time: Sep 27, 2016 at 10:44:38 PM

Latest Report: Sep 27, 2016 at 10:00 PM


Visibility: N/A

Pressure: 30.27 "Hg

Humidity: 68%

Dew Point: 54 °F

Location of IstresLocation

Past Weather in Istres — Graph

°F

Istres Temperature Yesterday

Maximum temperature yesterday: 81 °F (at 3:30 PM)
Minimum temperature yesterday: 61 °F (at 12:30 AM)
Average temperature yesterday: 70 °F

High & Low Weather Summary for the Past Weeks

 TemperatureHumidityPressure
High86 °F (Sep 13, 12:00 PM)94% (Sep 14, 11:30 PM)30.27 "Hg (Sep 14, 11:30 PM)
Low55 °F (Sep 22, 7:00 AM)29% (Sep 21, 2:00 PM)29.77 "Hg (Sep 14, 7:30 PM)
Average69 °F64%30.02 "Hg
* Reported Sep 12 9:00 PM — Sep 27 9:30 PM, Istres, Weather by CustomWeather, © 2016

Note: Actual official high and low records may vary slightly from our data, if they occured in-between our weather recording intervals... More about our weather records

Advertising

Istres Weather History for the Previous 24 Hours

Scroll right to see more
 ConditionsComfort  
Time TempWeatherWind HumidityBarometerVisibility
9:30 PM
Tue, Sep 27
66 °FClear.7 mph64%30.27 "Hg10 mi
9:00 PM66 °FClear.9 mph64%30.27 "Hg10 mi
8:30 PM68 °FClear.9 mph64%30.27 "Hg10 mi
8:00 PM68 °FMild.14 mph60%30.27 "HgN/A
7:30 PM70 °FClear.17 mph53%30.24 "Hg10 mi
7:00 PM73 °FMild.16 mph47%30.24 "HgN/A
6:30 PM77 °FSunny.12 mph42%30.21 "Hg10 mi
6:00 PM79 °FSunny.16 mph37%30.18 "Hg10 mi
5:30 PM79 °FSunny.14 mph37%30.18 "Hg10 mi
5:00 PM79 °FSunny.13 mph39%30.15 "Hg10 mi
4:30 PM79 °FPassing clouds.12 mph39%30.18 "HgN/A
4:00 PM79 °FPassing clouds.9 mph37%30.18 "HgN/A
3:30 PM79 °FPassing clouds.9 mph37%30.18 "HgN/A
3:00 PM79 °FPassing clouds.12 mph42%30.18 "HgN/A
2:30 PM77 °FSunny.7 mph42%30.18 "Hg10 mi
2:00 PM75 °FPassing clouds.8 mph47%30.18 "HgN/A
1:30 PM75 °FPassing clouds.8 mph47%30.18 "HgN/A
1:00 PM73 °FPassing clouds.8 mph50%30.21 "HgN/A
12:30 PM72 °FPassing clouds.7 mph57%30.21 "HgN/A
12:00 PM72 °FPassing clouds.9 mph53%30.21 "HgN/A
11:30 AM70 °FSunny.12 mph57%30.21 "Hg10 mi
11:00 AM68 °FSunny.13 mph60%30.21 "Hg10 mi
10:30 AM66 °FSunny.13 mph64%30.21 "Hg10 mi
10:00 AM64 °FSunny.12 mph68%30.21 "Hg10 mi
9:30 AM64 °FSunny.10 mph73%30.18 "Hg10 mi
9:00 AM63 °FSunny.6 mph77%30.18 "Hg10 mi
8:30 AM61 °FSunny.5 mph83%30.18 "Hg10 mi
8:00 AM61 °FSunny.5 mph83%30.18 "Hg10 mi
7:30 AM61 °FClear.5 mph83%30.18 "Hg10 mi
7:00 AM59 °FClear.3 mph82%30.15 "Hg10 mi
6:30 AM63 °FClear.5 mph77%30.15 "Hg10 mi
6:00 AM61 °FClear.5 mph83%30.15 "Hg10 mi
5:30 AM63 °FClear.5 mph77%30.15 "Hg10 mi
5:00 AM61 °FClear.3 mph83%30.15 "Hg10 mi
4:30 AM61 °FClear.3 mph83%30.12 "Hg10 mi
4:00 AM61 °FClear.5 mph77%30.12 "Hg10 mi
3:30 AM61 °FClear.3 mph83%30.15 "Hg10 mi
3:00 AM63 °FClear.6 mph77%30.15 "Hg10 mi
2:30 AM63 °FClear.5 mph77%30.15 "Hg10 mi
2:00 AM64 °FClear.5 mph73%30.12 "Hg10 mi
1:30 AM66 °FClear.5 mph68%30.12 "Hg10 mi
1:00 AM66 °FClear.6 mph68%30.15 "Hg10 mi
12:30 AM66 °FClear.8 mph68%30.15 "Hg10 mi
12:00 AM66 °FClear.6 mph68%30.15 "Hg10 mi
11:30 PM
Mon, Sep 26
68 °FClear.5 mph64%30.12 "Hg10 mi
11:00 PM68 °FClear.3 mph64%30.12 "Hg10 mi
10:30 PM70 °FClear.3 mph60%30.12 "Hg10 mi
10:00 PM70 °FClear.8 mph60%30.12 "Hg10 mi
Weather by CustomWeather, © 2016

See weather overviewHow to use our weather pages